User: anonymous   Login
Location: City of Moscow
(46.7306°N, 116.9989°W)
Time: 04:53:16
(UTC+00:00)
Language:

JY1SAT - Orbit

View from above orbital plane
View from above orbital plane
View from above satellite
View from above satellite

Ground track
Ground track

The orbit is defined by the following mean orbital elements,

1 43803U          26110.64391580 +.00000000 +00000-0 +44453-3 0 00000
2 43803  97.4170 173.3478 0007500 114.5830 245.6194 15.31804037    08
Epoch (UTC): 20 April 2026 15:27:14
Eccentricity: 0.0007500
inclination: 97.4170°
perigee height: 465 km
apogee height: 476 km
right ascension of ascending node: 173.3478°
argument of perigee: 114.5830°
revolutions per day: 15.31804037
mean anomaly at epoch: 245.6194°

The dashed part of the orbit path shows where the satellite is in the earth's shadow,  

DLR